Tracking 24120 objects as of 5-Dec-2021
HD Live streaming from Space Station
objects crossing your sky now

SL-6 R/B(2)

Track SL-6 R/B(2) now!


NORAD ID: 12680
Int'l Code: 1981-071D
Perigee: 3,291.7 km
Apogee: 37,324.3 km
Inclination: 65.7 °
Period: 722.8 minutes
Semi major axis: 26678 km
RCS: 5.721 m2 (large)
Launch date: August 4, 1981
Source: Commonwealth of Independent States (former USSR) (CIS)
Launch site: PLESETSK MISSILE AND SPACE COMPLEX (PKMTR)

Note: This is a ROCKET BODY
aabbcc
Your satellite tracking list
Your tracking list is empty




NASA's NSSDC Master Catalog

Two Line Element Set (TLE):
1 12680U 81071D   21338.53822298 -.00000531  00000-0  00000+0 0  9999
2 12680  65.7119 204.0150 6378157  39.3630 353.0198  1.99227240211796
Source of the keplerian elements: AFSPC